{"data":{"norad_id":56130,"intl_designator":"2023-046AQ","name":"STARLINK-6117","alt_names":[],"object_type":"PAYLOAD","status":"ACTIVE","operator":null,"country":"US","launch_date":"2023-03-29","launch_site_code":"AFETR","launch_vehicle":null,"mission":null,"orbit_class":"UNKNOWN","rcs_meters":null,"size_class":null,"mass_kg":null,"dimensions":null,"purposes":["comms"],"wikipedia_slug":null,"has_3d_model":false,"image_url":null,"decayed_at":null,"tle_current":{"epoch":"2026-09-20T21:18:17.341344Z","epoch_age_seconds":75159,"freshness":"FRESH","line1":"1 56130U 23046AQ  26263.88770071  .00001048  00000+0  47600-4 0  9990","line2":"2 56130  43.0038 124.5721 0002240 260.0170 100.0429 15.27585922192050","mean_motion":15.27585922,"eccentricity":0.000224,"inclination_deg":43.0038,"raan_deg":124.5721,"arg_perigee_deg":260.017,"mean_anomaly_deg":100.0429,"bstar":4.76e-5,"rev_number":19205,"period_min":94.266383269274,"perigee_km":481.49446178509,"apogee_km":484.56826521193,"semimajor_km":6861.1683634985,"source":"CELESTRAK","updated_at":"2026-09-21T09:00:33.387884Z"}}}